Weather History for KPIT - April, 2014

Change the Weather History Date:

Tuesday, April 8, 2014

  Actual Average Record
Temperature  
Mean Temperature 51 °F 48 °F  
Max Temperature 59 °F 59 °F 82 °F (1875)
Min Temperature 42 °F 38 °F 14 °F (1982)
Degree Days  
Heating Degree Days 14 17  
Month to date heating degree days 124 145  
Since 1 July heating degree days 5595 5190  
Cooling Degree Days 0 0  
Month to date cooling degree days 0 0  
Year to date cooling degree days 0 1  
Moisture  
Dew Point 38 °F    
Average Humidity 55    
Maximum Humidity 77    
Minimum Humidity 33    
Precipitation  
Precipitation 0.01 in 0.10 in 1.27 in (1902)
Month to date precipitation 1.93 0.82  
Year to date precipitation 8.23 8.86  
Snow  
Snow 0.00 in 0.10 in 11.20 in (1902)
Month to date snowfall 0.0 0.7  
Since 1 July snowfall 63.3 41.1  
Snow Depth 0.00 in    
Sea Level Pressure  
Sea Level Pressure 29.58 in    
Wind  
Wind Speed 14 mph (West)    
Max Wind Speed 32 mph    
Max Gust Speed 44 mph    
Visibility 10 miles    
Events Rain , Thunderstorm    
T = Trace of Precipitation, MM = Missing Value Source: NWS Daily Summary

Daily Weather History Graph

Daily Weather History Graph

Search for Another Location

Airport or City:

Trip Planner

Search our weather history database for the weather conditions in past years. The results will help you decide how hot, cold, wet, or windy it might be!

Date:

Astronomy

Apr. 08, 2014 Rise Set
Actual Time 6:53 AM EDT 7:52 PM EDT
Civil Twilight 6:25 AM EDT 8:20 PM EDT
Nautical Twilight 5:52 AM EDT 8:53 PM EDT
Astronomical Twilight 5:17 AM EDT 9:28 PM EDT
Moon 1:43 PM EDT (4/8) 3:06 AM EDT (4/8)
Length of Visible Light 13h 55m
Length of Day
12h 59m
Waxing Gibbous, 62% of the Moon is Illuminated
Apr 8
Waxing Gibbous
Apr 15
Full
Apr 22
Last Quarter
Apr 29
New
May 6
First Quarter

Hourly Weather History & Observations

Time (EDT) Temp. Windchill Dew Point Humidity Pressure Visibility Wind Dir Wind Speed Gust Speed Precip Events Conditions
12:40 AM 50.0 °F - 46.9 °F 89% 29.41 in 3.0 mi West 15.0 mph - 0.00 in Rain , Thunderstorm Light Thunderstorms and Rain
12:51 AM 52.0 °F - 50.0 °F 93% 29.42 in 4.0 mi West 10.4 mph - 0.16 in Rain , Thunderstorm Heavy Thunderstorms and Rain
1:04 AM 53.1 °F - 50.0 °F 89% 29.40 in 10.0 mi WSW 13.8 mph 18.4 mph 0.02 in Rain Light Rain
1:51 AM 54.0 °F - 51.1 °F 90% 29.42 in 10.0 mi SSW 8.1 mph - 0.03 in Rain Light Rain
2:32 AM 55.0 °F - 51.1 °F 86% 29.37 in 10.0 mi SSW 11.5 mph 21.9 mph 0.00 in   Overcast
2:51 AM 55.0 °F - 48.9 °F 80% 29.39 in 10.0 mi SW 17.3 mph 29.9 mph 0.00 in   Overcast
3:51 AM 54.0 °F - 46.0 °F 75% 29.38 in 10.0 mi SSW 18.4 mph 29.9 mph N/A   Overcast
4:51 AM 52.0 °F - 42.1 °F 69% 29.41 in 10.0 mi SW 23.0 mph 31.1 mph N/A   Overcast
5:51 AM 50.0 °F - 39.9 °F 68% 29.44 in 10.0 mi WSW 20.7 mph 40.3 mph N/A   Overcast
6:51 AM 46.0 °F 38.0 °F 37.9 °F 73% 29.49 in 10.0 mi WSW 21.9 mph 41.4 mph N/A   Overcast
7:51 AM 42.1 °F 33.6 °F 37.9 °F 85% 29.57 in 10.0 mi West 18.4 mph 26.5 mph 0.00 in   Light Drizzle
8:20 AM 42.1 °F 37.1 °F 37.9 °F 85% 29.55 in 10.0 mi WSW 8.1 mph - 0.00 in   Light Drizzle
8:51 AM 43.0 °F 35.4 °F 37.9 °F 82% 29.60 in 10.0 mi West 16.1 mph 25.3 mph 0.00 in   Light Drizzle
9:23 AM 44.1 °F 37.4 °F 39.0 °F 82% 29.58 in 10.0 mi West 13.8 mph 20.7 mph 0.00 in   Light Drizzle
9:51 AM 44.1 °F 38.6 °F 39.0 °F 82% 29.62 in 10.0 mi West 10.4 mph - 0.00 in   Light Drizzle
10:51 AM 45.0 °F 38.2 °F 39.0 °F 80% 29.66 in 10.0 mi West 15.0 mph - 0.00 in   Overcast
11:51 AM 46.9 °F - 39.0 °F 74% 29.68 in 10.0 mi West 11.5 mph - N/A   Overcast
12:51 PM 50.0 °F - 39.9 °F 68% 29.66 in 10.0 mi West 16.1 mph 23.0 mph N/A   Mostly Cloudy
1:51 PM 53.1 °F - 37.9 °F 57% 29.67 in 10.0 mi West 12.7 mph 21.9 mph N/A   Mostly Cloudy
2:51 PM 57.0 °F - 37.0 °F 47% 29.65 in 10.0 mi WNW 13.8 mph - N/A   Scattered Clouds
3:51 PM 57.9 °F - 33.1 °F 39% 29.64 in 10.0 mi NW 17.3 mph 24.2 mph N/A   Scattered Clouds
4:51 PM 59.0 °F - 30.0 °F 33% 29.64 in 10.0 mi WNW 15.0 mph 26.5 mph N/A   Partly Cloudy
5:51 PM 59.0 °F - 30.0 °F 33% 29.66 in 10.0 mi NW 18.4 mph 24.2 mph N/A   Partly Cloudy
6:51 PM 57.0 °F - 30.0 °F 36% 29.68 in 10.0 mi West 12.7 mph - N/A   Partly Cloudy
7:51 PM 54.0 °F - 30.0 °F 40% 29.72 in 10.0 mi NW 9.2 mph - N/A   Scattered Clouds
8:51 PM 52.0 °F - 28.0 °F 40% 29.74 in 10.0 mi NNW 10.4 mph - N/A   Partly Cloudy
9:51 PM 48.9 °F - 25.0 °F 39% 29.77 in 10.0 mi NNW 8.1 mph - N/A   Partly Cloudy
10:51 PM 48.0 °F - 24.1 °F 39% 29.78 in 10.0 mi NNW 8.1 mph - N/A   Partly Cloudy
11:51 PM 46.9 °F - 24.1 °F 41% 29.77 in 10.0 mi Calm Calm - N/A   Partly Cloudy